Baker Lake, Nunavut

3:13 PM CDT on September 26, 2016 (GMT -0500)
Baker Lake

Weather History for CYBK - April, 2013

Change the Weather History Date:

Wednesday, April 10, 2013

  Actual Average Record
Temperature  
Mean Temperature 0 °F -  
Max Temperature 11 °F 4 °F 23 °F (2007)
Min Temperature -11 °F -8 °F -25 °F (2002)
Degree Days  
Heating Degree Days 65    
Moisture  
Dew Point -5 °F    
Average Humidity 78    
Maximum Humidity 85    
Minimum Humidity 61    
Precipitation  
Precipitation 0.00 in - - ()
Sea Level Pressure  
Sea Level Pressure 30.45 in    
Wind  
Wind Speed 3 mph ()    
Max Wind Speed 15 mph    
Max Gust Speed -    
Visibility 18.0 miles    
Events Snow    
Averages and records for this station are not official NWS values.
T = Trace of Precipitation, MM = Missing Value Source: Averaged Metar Reports

Daily Weather History Graph

Daily Weather History Graph

Search for Another Location

Airport or City:

Trip Planner

Search our weather history database for the weather conditions in past years. The results will help you decide how hot, cold, wet, or windy it might be!

Date:

Astronomy

Apr. 10, 2013 Rise Set
Actual Time 6:08 AM CDT 8:44 PM CDT
Civil Twilight 5:15 AM CDT 9:38 PM CDT
Nautical Twilight 4:01 AM CDT 10:54 PM CDT
Astronomical Twilight 1:58 AM CDT 12:52 AM CDT
Moon 5:55 AM CDT (4/10) 9:46 PM CDT (4/10)
Length of Visible Light 16h 23m
Length of Day
14h 35m
New Moon, 0% of the Moon is Illuminated
Apr 10
New Moon
Apr 18
First Quarter
Apr 25
Full
May 2
Last Quarter
May 9
New

Hourly Weather History & Observations

Time (CDT) Temp. Windchill Dew Point Humidity Pressure Visibility Wind Dir Wind Speed Gust Speed Precip Events Conditions
12:00 AM -7.6 °F - -13.0 °F 77% 30.55 in 15.0 mi Calm Calm - N/A   Clear
1:00 AM -8 °F - -14 °F 61% 30.54 in 15 mi Calm Calm - -  
1:00 AM -7.6 °F - -14.8 °F 71% 30.54 in 15.0 mi Calm Calm - N/A   Clear
2:00 AM -9.4 °F - -16.6 °F 71% 30.53 in 15.0 mi Calm Calm - N/A   Clear
3:00 AM -7.6 °F - -13.0 °F 77% 30.53 in 15.0 mi Calm Calm - N/A   Clear
5:00 AM -5.8 °F - -13.0 °F 71% 30.51 in 15.0 mi Calm Calm - N/A   Clear
6:00 AM -7.6 °F - -13.0 °F 77% 30.51 in 15.0 mi Calm Calm - N/A   Clear
7:00 AM -7 °F - -13 °F 63% 30.52 in 19 mi Calm Calm - -  
7:00 AM -7.6 °F - -13.0 °F 77% 30.52 in 20.0 mi Calm Calm - N/A   Clear
8:00 AM -7.6 °F - -13.0 °F 77% 30.52 in 20.0 mi Calm Calm - N/A   Mostly Cloudy
9:00 AM -7.6 °F - -13.0 °F 77% 30.51 in 20.0 mi East 2.3 mph - N/A   Mostly Cloudy
10:00 AM -5.8 °F -19.9 °F -9.4 °F 84% 30.49 in 20.0 mi SE 6.9 mph - N/A   Mostly Cloudy
11:00 AM -4.0 °F -20.2 °F -7.6 °F 85% 30.48 in 20.0 mi East 9.2 mph - N/A   Mostly Cloudy
12:00 PM -0.4 °F -8.3 °F -4.0 °F 85% 30.46 in 15.0 mi SE 3.5 mph - N/A   Clear
1:00 PM 2 °F - -2 °F 73% 30.44 in 19 mi SE 12.7 mph - - Snow Snow
1:00 PM 1.4 °F -16.1 °F -2.2 °F 85% 30.44 in 20.0 mi SE 12.7 mph - N/A   Clear
2:00 PM 5.0 °F -10.8 °F 1.4 °F 85% 30.43 in 20.0 mi ESE 11.5 mph - N/A   Clear
3:00 PM 6.8 °F -9.3 °F 3.2 °F 85% 30.42 in 20.0 mi SE 12.7 mph - N/A   Clear
4:00 PM 10.4 °F -4.1 °F 6.8 °F 85% 30.40 in 20.0 mi SE 11.5 mph - N/A   Partly Cloudy
5:00 PM 10.4 °F -4.1 °F 6.8 °F 85% 30.39 in 20.0 mi SE 11.5 mph - N/A   Partly Cloudy
6:00 PM 10.4 °F -0.4 °F 5.0 °F 79% 30.38 in 20.0 mi ESE 6.9 mph - N/A   Partly Cloudy
7:00 PM 9 °F - 4 °F 72% 30.36 in 19 mi ESE 3.5 mph - -   Scattered Clouds
7:00 PM 8.6 °F - 5.0 °F 85% 30.36 in 20.0 mi Calm Calm - N/A   Partly Cloudy
8:00 PM 6.8 °F -10.7 °F 1.4 °F 79% 30.33 in 20.0 mi ESE 15.0 mph - N/A   Partly Cloudy
9:00 PM 3.2 °F -6.2 °F -0.4 °F 85% 30.33 in 20.0 mi East 4.6 mph - N/A   Partly Cloudy
10:00 PM 3.2 °F -6.2 °F -2.2 °F 78% 30.32 in 15.0 mi ESE 4.6 mph - N/A   Partly Cloudy
11:00 PM 1.4 °F -9.9 °F -4.0 °F 78% 30.31 in 15.0 mi ESE 5.8 mph - N/A   Partly Cloudy